Wind_Speed
8 7 7 7 7 7 8 8 10 11 11 12 12 12 12 11 11 11 11 10 10 9 9 9 8 7 7 6 6 6 5 5 5 5 5 6 6 6 6 5 6 6 6
9 8 8 7 8 8 8 8 8 9 10 11 11 11 12 11 11 11 11 11 10 10 9 9 8 8 7 6 6 5 5 5 4 4 4 4 5 5 5 5 4 5 5
9 9 8 8 8 8 8 8 8 9 9 10 11 11 11 11 11 11 11 11 11 10 10 9 8 8 7 6 6 6 5 5 4 4 3 3 3 3 3 3 3 4 4
9 9 8 8 8 8 7 8 8 9 10 11 11 12 12 12 12 12 11 11 11 11 10 10 9 8 8 7 6 6 6 5 5 4 3 2 2 2 2 2 2 2 3
10 9 9 9 9 8 8 9 9 10 11 12 12 12 13 13 13 13 13 12 12 12 12 11 11 10 9 9 8 8 7 7 6 5 4 3 2 2 1 0 0 1 1
11 10 9 9 9 10 10 10 11 12 13 14 14 14 14 14 14 14 15 14 14 14 14 13 12 12 12 11 10 10 10 9 8 7 5 5 3 3 2 2 1 1 1
12 11 11 10 10 11 12 12 13 14 15 16 16 17 17 17 17 17 17 17 17 17 16 16 15 14 14 14 13 13 12 12 11 9 8 7 6 5 4 4 3 3 3
14 13 12 12 12 12 13 14 15 16 17 18 19 19 19 20 20 20 20 20 20 20 19 19 18 17 17 17 17 16 16 15 14 13 11 10 10 8 7 6 6 5 5
16 15 15 15 15 15 16 16 17 18 19 20 21 21 22 22 23 24 24 23 23 22 22 21 21 20 20 20 20 19 19 19 18 16 15 14 13 12 11 9 8 8 8
17 17 17 17 17 18 18 19 19 20 21 22 23 23 24 24 25 25 26 26 26 25 25 24 24 23 23 23 23 23 22 22 22 20 18 17 16 15 14 13 12 11 11
19 19 19 19 19 20 20 21 22 23 23 24 25 26 26 26 26 27 28 29 29 29 28 27 27 26 26 25 26 26 25 25 25 23 21 20 20 18 18 17 15 15 14
21 22 21 21 21 22 22 23 24 25 26 26 26 27 27 27 28 29 29 30 31 32 31 31 30 29 29 28 28 28 27 28 27 27 25 23 23 21 20 19 18 18 17
23 24 23 23 24 26 26 26 27 28 28 28 28 28 29 30 30 31 31 31 31 33 33 33 32 31 31 30 30 29 30 30 29 29 27 25 25 23 21 21 20 20 19
25 26 27 27 27 28 29 29 30 31 31 31 31 31 32 32 32 33 34 34 33 34 35 35 34 34 34 33 33 32 32 32 31 30 30 28 27 25 23 22 21 20 19
28 29 30 31 31 32 33 34 34 34 35 34 34 34 34 35 35 35 36 36 36 36 35 35 36 35 36 35 34 33 34 33 32 32 31 30 28 26 25 24 22 21 20
31 32 34 35 34 35 36 37 38 38 38 39 39 37 37 37 38 38 38 38 37 37 37 37 36 36 35 35 34 33 33 33 32 32 31 30 28 27 26 25 23 22 21
33 34 35 36 36 37 38 40 40 41 42 42 42 41 40 40 40 40 40 39 38 37 37 37 37 36 35 35 35 34 33 32 32 31 31 30 28 28 28 26 24 23 22
34 34 35 37 37 38 40 42 42 43 43 44 43 43 41 41 41 41 40 39 38 37 35 35 37 36 34 34 33 33 33 31 32 31 31 31 29 28 27 26 26 25 23
33 34 35 36 37 39 41 43 44 44 45 45 46 44 43 42 41 41 40 38 37 36 34 34 34 35 34 33 32 32 31 31 32 32 31 30 28 27 27 26 26 25 24
31 33 35 37 38 40 42 43 44 45 45 46 46 46 44 43 42 41 39 38 37 35 34 34 34 34 34 33 34 32 32 33 33 32 31 30 28 27 27 26 26 25 23
31 33 35 37 39 41 42 44 44 44 46 46 46 45 43 42 41 40 40 39 36 35 35 34 33 33 33 33 32 32 32 31 31 32 31 30 29 28 28 27 27 25 23
30 33 35 36 39 41 42 43 44 44 44 45 45 44 43 42 41 41 41 39 37 37 37 35 34 33 32 31 30 30 31 32 31 30 31 30 29 29 29 28 26 25 24
30 31 34 36 38 39 41 42 43 43 44 45 45 44 42 42 42 42 41 40 39 38 37 35 34 33 30 30 31 31 32 34 32 30 30 30 30 30 29 28 26 25 25
30 32 34 35 37 39 40 42 43 44 45 45 46 46 45 44 43 43 43 42 41 40 38 37 36 34 32 33 33 33 32 32 31 30 31 30 30 31 30 29 28 26 26
31 33 35 36 37 39 41 42 44 45 45 46 46 46 46 45 44 44 43 43 42 42 40 40 39 37 36 35 34 33 34 34 33 33 31 30 30 31 31 31 30 28 27
32 35 36 38 38 40 41 43 44 45 45 46 46 46 46 46 46 46 45 44 43 43 42 42 41 40 39 38 37 36 35 35 35 35 34 32 32 32 32 32 32 30 29
Wind_Direction
299 300 303 313 319 325 332 339 344 347 347 347 345 344 343 343 344 346 350 355 360 3 5 5 4 3 5 5 5 8 16 24 32 39 46 52 56 60 66 73 79 81 85
298 300 299 304 309 313 320 328 334 339 340 338 337 336 335 334 334 336 340 344 347 349 353 355 357 354 351 352 351 349 353 0 10 22 32 42 51 59 66 72 81 85 86
299 300 299 301 304 306 311 318 325 329 330 329 327 326 326 326 327 328 331 333 336 336 337 340 342 343 340 336 334 333 335 339 345 355 8 24 36 50 63 71 79 86 88
300 298 298 298 301 304 309 316 320 321 321 321 320 318 317 318 318 318 321 323 324 325 325 324 324 325 325 323 318 315 315 320 324 326 333 347 0 16 41 68 78 86 89
301 299 300 299 299 302 308 313 314 314 313 313 314 314 313 313 311 311 312 313 313 313 312 311 309 307 307 306 303 301 299 299 302 307 310 311 318 321 319 335 89 98 101
301 299 299 298 298 302 306 308 309 308 308 308 307 307 307 307 306 304 304 304 304 303 302 300 298 295 294 293 291 289 287 286 285 285 291 293 290 291 294 286 265 241 236
299 298 296 296 298 303 306 306 306 306 307 307 305 303 302 300 299 298 298 298 297 296 293 291 288 286 284 283 282 280 279 277 276 275 275 276 277 278 281 280 271 258 251
298 296 295 296 299 303 305 304 303 303 305 306 305 304 303 301 299 297 295 295 294 292 289 285 281 279 276 275 275 274 273 272 271 270 269 269 271 271 270 272 268 263 258
299 296 293 294 298 301 302 303 304 303 305 305 305 304 303 301 300 299 296 294 293 290 286 283 280 277 273 270 270 270 270 270 268 267 266 266 267 267 265 265 265 262 260
298 297 296 297 300 301 301 302 303 304 305 305 304 303 302 300 299 298 296 294 292 289 285 281 278 276 273 269 267 266 267 267 266 265 265 264 265 265 263 261 261 260 258
296 296 297 298 300 302 302 303 304 304 303 303 303 302 302 301 298 297 295 293 291 288 285 282 279 274 272 269 265 263 264 264 264 264 262 262 263 262 261 259 259 258 257
297 297 298 300 300 300 301 302 302 302 302 301 301 300 299 300 299 297 296 294 290 288 285 283 280 275 270 268 264 262 261 261 262 262 260 258 259 259 258 257 257 256 256
295 297 298 300 301 301 301 300 300 301 301 299 298 298 298 298 297 296 295 291 290 288 285 282 279 275 269 265 263 260 259 259 260 259 258 256 255 254 254 255 255 255 255
292 293 296 297 299 299 299 299 298 301 301 300 297 295 296 297 296 295 296 293 289 287 284 282 281 276 271 266 261 257 256 256 257 258 254 252 251 251 251 252 252 252 253
290 290 293 295 296 296 296 297 298 299 300 299 298 295 294 295 295 295 294 295 293 288 284 281 280 276 273 267 262 258 255 255 255 257 253 250 250 248 247 249 248 248 249
287 288 290 290 290 290 292 294 295 297 298 297 296 294 293 293 292 293 291 292 290 288 285 282 280 277 274 269 264 259 256 253 251 253 253 252 251 249 247 247 246 246 247
284 285 286 286 287 289 291 291 292 294 294 294 293 291 291 291 290 291 291 290 288 285 283 282 279 277 275 271 266 261 257 254 251 251 253 252 250 248 245 244 244 245 246
282 283 283 284 286 287 288 289 291 292 291 291 291 289 288 288 289 289 289 289 286 285 283 281 278 276 275 271 266 261 256 252 250 250 251 249 247 248 246 243 244 246 245
280 281 282 283 285 286 287 287 289 289 290 290 290 289 289 288 287 287 287 286 285 281 280 280 278 275 274 269 264 261 256 252 251 249 250 248 247 245 243 243 244 243 242
279 280 282 283 284 285 286 287 288 289 288 289 289 289 288 286 286 286 284 285 283 279 278 278 276 276 273 269 263 259 255 253 250 246 246 247 245 243 241 240 241 239 240
281 281 282 283 284 285 286 286 287 288 287 287 288 288 288 287 285 284 283 283 281 278 277 278 277 275 271 268 261 255 254 251 247 244 243 242 241 240 240 238 235 235 235
285 284 283 284 284 286 287 287 287 288 288 288 288 287 287 285 284 282 282 281 279 278 276 275 274 273 269 264 257 252 249 246 244 243 241 240 239 240 238 234 231 230 231
289 289 288 288 288 288 288 288 288 287 288 288 287 286 286 285 283 282 280 278 277 275 274 271 270 268 267 260 253 251 250 246 244 242 239 238 239 237 234 233 230 227 227
295 294 293 293 293 292 291 290 290 289 289 289 289 288 287 285 283 281 279 277 276 274 272 270 269 265 263 258 253 249 247 246 243 240 238 237 237 235 231 229 228 224 224
301 300 299 298 297 296 294 293 292 292 291 290 289 288 287 285 283 281 278 276 275 272 270 268 267 264 260 256 253 252 249 246 243 239 236 235 235 233 230 229 227 223 223
306 305 304 303 301 300 298 296 295 294 292 291 291 290 288 287 284 282 279 276 275 272 270 267 265 263 259 255 252 252 249 246 242 238 235 233 232 231 229 227 226 223 223
Height
5914 5914 5914 5914 5913 5913 5912 5912 5911 5910 5910 5909 5908 5908 5907 5907 5906 5905 5904 5904 5903 5902 5902 5901 5900 5900 5899 5898 5898 5897 5896 5896 5896 5896 5895 5895 5895 5895 5896 5896 5897 5897 5898
5914 5913 5913 5913 5913 5912 5912 5911 5911 5910 5909 5909 5908 5907 5907 5906 5906 5905 5904 5904 5903 5903 5902 5901 5901 5900 5900 5899 5898 5898 5897 5897 5897 5897 5896 5896 5896 5897 5897 5897 5898 5898 5899
5913 5912 5912 5912 5912 5911 5911 5910 5910 5909 5909 5908 5907 5907 5906 5906 5905 5904 5904 5903 5903 5903 5902 5902 5901 5900 5900 5899 5899 5898 5898 5898 5897 5897 5897 5897 5897 5898 5898 5898 5899 5899 5900
5912 5911 5911 5911 5911 5910 5910 5909 5909 5908 5908 5907 5907 5906 5905 5905 5904 5904 5903 5903 5902 5902 5902 5901 5901 5900 5900 5899 5899 5899 5898 5898 5898 5898 5898 5898 5898 5898 5898 5899 5899 5900 5901
5911 5911 5910 5910 5910 5909 5908 5908 5908 5907 5907 5906 5906 5905 5905 5904 5903 5902 5902 5901 5901 5901 5900 5900 5900 5900 5899 5899 5899 5898 5898 5898 5898 5898 5898 5898 5898 5898 5898 5899 5899 5900 5901
5910 5910 5909 5909 5908 5908 5907 5907 5906 5906 5905 5905 5904 5904 5903 5902 5902 5901 5900 5900 5899 5899 5899 5899 5898 5898 5898 5898 5898 5898 5897 5897 5898 5898 5898 5898 5897 5898 5898 5899 5899 5900 5901
5909 5908 5908 5907 5907 5906 5906 5905 5904 5904 5903 5903 5902 5902 5901 5900 5899 5899 5898 5897 5897 5896 5896 5896 5896 5896 5896 5896 5896 5896 5896 5896 5896 5897 5897 5897 5897 5897 5898 5898 5898 5899 5900
5907 5906 5906 5905 5905 5904 5904 5903 5902 5902 5901 5900 5900 5899 5898 5897 5897 5896 5895 5894 5894 5893 5893 5893 5893 5893 5893 5894 5894 5894 5894 5894 5894 5895 5896 5896 5896 5896 5897 5897 5898 5898 5899
5905 5904 5904 5903 5903 5902 5901 5901 5900 5899 5898 5897 5896 5895 5895 5894 5893 5892 5891 5891 5890 5890 5889 5889 5889 5889 5890 5890 5891 5891 5891 5891 5892 5893 5894 5894 5894 5895 5895 5896 5896 5897 5898
5902 5901 5901 5900 5900 5899 5899 5898 5897 5896 5895 5894 5893 5892 5890 5889 5888 5887 5887 5886 5885 5885 5885 5885 5885 5885 5886 5886 5887 5887 5887 5888 5888 5889 5891 5892 5892 5893 5893 5894 5895 5895 5896
5898 5898 5898 5898 5897 5896 5896 5895 5894 5893 5891 5890 5889 5887 5886 5885 5884 5883 5882 5881 5880 5879 5879 5879 5879 5880 5880 5881 5882 5882 5883 5883 5884 5885 5887 5888 5888 5890 5890 5891 5892 5893 5894
5894 5894 5894 5894 5893 5892 5892 5891 5889 5889 5887 5886 5885 5883 5881 5880 5879 5878 5877 5875 5874 5873 5873 5873 5873 5874 5874 5875 5876 5877 5878 5878 5879 5880 5882 5884 5884 5885 5887 5888 5889 5890 5891
5890 5890 5890 5890 5889 5888 5887 5886 5885 5884 5883 5881 5880 5879 5877 5875 5873 5871 5871 5870 5868 5866 5866 5866 5866 5867 5867 5868 5869 5871 5872 5873 5874 5875 5877 5879 5879 5881 5882 5884 5885 5886 5888
5886 5886 5885 5885 5885 5883 5882 5881 5880 5878 5877 5875 5874 5873 5871 5870 5868 5866 5864 5862 5861 5860 5859 5858 5859 5859 5859 5860 5861 5863 5865 5866 5868 5869 5871 5872 5873 5875 5877 5879 5881 5882 5884
5883 5881 5880 5880 5880 5878 5876 5875 5874 5872 5871 5869 5868 5867 5865 5864 5862 5860 5858 5855 5853 5852 5851 5851 5851 5850 5851 5852 5853 5855 5857 5859 5861 5863 5863 5864 5865 5868 5872 5874 5876 5878 5880
5878 5877 5875 5875 5874 5873 5871 5869 5867 5866 5864 5862 5861 5859 5858 5856 5855 5853 5851 5849 5847 5844 5843 5843 5843 5842 5842 5843 5844 5846 5849 5851 5854 5856 5857 5858 5859 5863 5866 5869 5871 5874 5876
5872 5871 5870 5869 5867 5866 5865 5863 5861 5859 5857 5855 5853 5851 5849 5848 5847 5845 5843 5842 5839 5837 5836 5834 5834 5834 5834 5835 5836 5839 5841 5844 5846 5849 5851 5853 5855 5858 5861 5864 5866 5869 5871
5866 5865 5864 5863 5861 5860 5858 5856 5853 5851 5849 5846 5844 5842 5840 5839 5838 5836 5835 5833 5831 5829 5828 5827 5826 5826 5826 5827 5829 5830 5833 5836 5839 5842 5844 5846 5850 5853 5855 5858 5861 5863 5866
5860 5859 5858 5856 5855 5853 5851 5848 5846 5843 5841 5838 5835 5833 5831 5829 5828 5827 5826 5825 5823 5821 5820 5819 5819 5819 5819 5820 5821 5823 5825 5828 5831 5834 5837 5840 5843 5847 5850 5852 5855 5858 5861
5854 5853 5851 5850 5848 5845 5843 5840 5838 5835 5832 5829 5826 5824 5822 5820 5819 5818 5817 5816 5814 5813 5813 5812 5811 5811 5812 5812 5813 5815 5817 5820 5823 5826 5830 5833 5837 5840 5843 5846 5850 5852 5855
5848 5846 5845 5842 5840 5837 5835 5832 5829 5826 5822 5819 5817 5815 5813 5812 5810 5809 5807 5807 5806 5805 5804 5804 5803 5804 5804 5804 5806 5808 5810 5812 5815 5818 5823 5826 5830 5833 5837 5841 5844 5847 5850
5842 5840 5837 5835 5832 5829 5826 5823 5819 5816 5813 5810 5808 5806 5804 5802 5801 5799 5798 5797 5797 5796 5795 5795 5796 5796 5797 5797 5798 5800 5803 5806 5808 5812 5816 5819 5823 5827 5830 5834 5837 5841 5845
5835 5833 5830 5827 5824 5820 5817 5813 5810 5807 5804 5800 5798 5795 5794 5793 5791 5789 5788 5787 5787 5787 5787 5787 5787 5787 5788 5789 5791 5793 5796 5798 5802 5805 5809 5812 5816 5820 5823 5827 5832 5836 5840
5828 5825 5822 5819 5815 5811 5808 5804 5800 5797 5793 5790 5787 5784 5783 5782 5780 5779 5778 5777 5777 5777 5778 5778 5779 5779 5780 5781 5783 5785 5788 5790 5794 5797 5801 5806 5809 5814 5817 5822 5826 5830 5834
5821 5817 5813 5810 5806 5802 5798 5793 5789 5785 5782 5778 5776 5773 5771 5770 5768 5767 5766 5766 5766 5766 5767 5768 5769 5770 5771 5773 5775 5777 5779 5782 5785 5790 5794 5798 5802 5806 5811 5815 5820 5824 5828
5813 5809 5804 5800 5796 5792 5787 5783 5778 5774 5770 5767 5764 5761 5759 5757 5755 5754 5753 5754 5754 5754 5755 5756 5758 5760 5762 5764 5766 5769 5771 5774 5777 5781 5786 5790 5794 5799 5803 5808 5813 5818 5823